Powrót do katalogu

KUIPER-00016

AktywnyŁącznośćLEO
NORAD 63732·PAYLOAD·🇺🇸 United States

Wystrzelony Apr 28, 2025 z Cape Canaveral Space Force Station

Loading…

Następne Przeloty (najbliższe 24 godziny)

TLE

ŚwieżeSource: CelesTrak SupGP

Epoka: Sep 14, 2026, 19:23 UTC

1 63732C 25088J   26257.80774306  .00005544  00000+0  72584-3 0  2574
2 63732  51.9011 354.2913 0000377 101.7572 144.6773 14.79915958    18

Śledź KUIPER-00016 w czasie rzeczywistym z AllMySat

Download on the App Store